Location: Ajisawe
(8.4333°N, 4.3833°E)
Time: 22:29:15
(UTC+00:00)

Vanguard 1 Rocket - Pass Details

Date: 27 April 2021
Orbit: 652 x 4224 km, 34.3° (Epoch: 10 May)

Event Time Altitude Azimuth Distance (km) Brightness Sun altitude
Rises 18:51:43 0° 295° (WNW) 3,171 12.0 -15.0°
Reaches altitude 10° 18:53:45 10° 290° (WNW) 2,407 11.0 -15.5°
Maximum altitude 18:59:06 55° 212° (SSW) 1,315 8.2 -16.8°
Enters shadow 19:06:08 17° 141° (SE) 3,303 9.7 -18.4°
